Wind_Speed
58 61 64 63 66 69 71 76 80 84 84 80 78 79 85 86 85 86 82 81 88 86 69 63 58 53 54 52 51 47 43 42 43 43 43 44 44 43
51 56 59 62 66 69 72 75 75 79 81 81 80 78 78 84 86 87 85 83 88 78 84 77 54 51 49 53 55 50 44 41 43 44 44 46 46 45
44 48 52 61 66 70 69 68 70 72 79 76 77 77 76 75 78 83 84 82 83 83 80 85 78 83 68 61 57 45 47 49 43 43 46 44 45 49
42 45 50 53 54 47 45 51 57 55 62 73 72 72 72 73 71 71 73 76 80 83 83 82 84 83 82 75 69 68 52 48 52 50 48 46 46 47
43 44 43 35 28 16 21 26 30 28 40 61 67 70 69 68 69 69 67 66 68 72 78 81 84 84 82 76 70 63 60 53 56 53 59 51 51 49
43 43 36 24 14 11 12 18 19 22 37 40 48 61 66 65 66 67 68 67 65 65 64 67 69 74 75 72 69 70 67 61 60 60 56 53 50 49
39 39 33 21 11 10 9 11 17 21 27 24 37 42 53 60 61 58 58 58 58 59 61 60 60 67 66 62 60 61 59 60 59 58 56 52 49 48
39 34 30 19 8 4 10 13 12 16 24 25 24 28 36 45 47 48 49 52 54 56 55 53 55 56 62 60 54 55 55 53 54 55 52 52 52 50
44 37 31 21 10 5 9 9 7 9 13 16 19 23 27 33 38 42 46 47 52 55 54 53 57 55 53 57 54 55 46 50 51 53 52 54 54 51
37 41 39 31 22 11 7 8 10 13 17 23 25 30 33 34 36 39 42 47 52 52 52 51 61 57 43 57 54 47 51 54 54 54 53 51 51 54
30 34 37 38 30 17 12 10 11 14 16 17 19 23 28 31 36 39 36 38 42 45 47 51 49 52 54 50 50 52 52 50 50 51 51 51 53 50
31 31 32 31 32 31 19 11 8 10 14 18 18 21 24 25 26 28 30 34 36 36 40 42 44 44 45 45 48 48 49 49 50 49 49 48 45 37
27 27 28 28 27 25 23 23 17 15 16 16 18 19 21 24 27 28 23 25 30 33 36 41 42 43 46 47 47 48 47 45 42 44 42 35 33 32
27 27 25 24 25 23 22 20 19 17 17 11 17 16 20 23 24 24 23 29 32 32 34 35 38 39 42 44 46 42 41 45 42 30 30 31 32 33
27 25 25 26 24 21 21 20 18 16 14 11 10 9 10 10 20 22 29 33 29 36 35 39 35 34 41 42 39 31 28 28 28 29 30 30 33 35
28 26 25 25 25 26 25 20 20 19 16 15 14 11 9 7 5 5 7 6 5 11 14 17 18 15 16 18 20 24 25 27 29 30 30 33 37 39
31 30 27 27 27 25 25 25 24 21 20 20 18 16 15 13 11 11 11 10 10 10 12 13 15 17 19 22 24 26 28 30 30 32 34 38 42 43
38 35 34 31 30 30 29 29 28 26 25 24 22 21 20 20 20 19 19 19 18 18 19 20 21 22 24 26 28 30 31 33 36 39 40 41 44 47
45 44 41 39 36 35 35 34 33 31 30 28 27 27 26 25 26 26 26 26 26 26 27 28 28 29 31 32 35 36 38 39 41 43 44 45 47 51
50 51 50 48 46 42 41 41 40 39 37 34 33 31 30 29 28 27 28 30 32 34 35 35 36 37 39 40 41 44 43 45 46 47 47 49 52 53
55 53 54 55 55 52 49 47 47 46 45 44 43 40 37 35 35 35 35 34 33 33 34 35 37 38 36 38 42 46 49 49 50 51 51 52 53 56
53 54 54 53 54 54 54 55 53 52 51 49 50 50 47 45 45 45 43 43 42 42 41 41 40 39 42 43 46 49 50 48 50 53 53 53 53 53
52 51 51 50 51 53 54 54 54 57 57 55 53 53 54 54 53 54 53 52 52 52 51 49 48 47 46 45 50 53 53 53 55 52 53 55 53 51
Wind_Direction
284 278 279 277 271 263 259 255 252 250 249 247 245 245 244 243 244 245 243 243 247 252 251 253 251 243 245 251 254 250 253 257 261 261 261 263 265 267
287 283 283 278 272 266 260 253 252 250 246 245 244 244 244 243 242 244 246 244 248 249 252 253 250 254 248 252 247 243 247 255 260 261 261 262 262 266
298 296 290 286 279 272 261 252 248 248 244 241 243 242 242 243 241 242 245 247 249 252 249 252 252 254 255 256 260 262 256 249 256 262 266 263 260 264
317 309 306 294 292 272 249 243 246 245 247 237 237 239 241 242 241 241 241 244 247 251 254 254 256 254 256 262 263 263 264 263 263 258 264 260 258 259
333 324 318 309 303 272 245 234 244 242 246 239 235 236 240 241 243 244 246 247 248 249 250 252 252 255 258 262 263 263 262 264 264 264 259 260 261 260
339 335 337 328 309 269 272 253 242 235 240 229 236 235 238 242 242 242 245 249 252 253 253 254 252 254 254 259 261 263 263 261 260 261 262 263 264 266
341 342 346 344 326 248 272 257 240 234 231 229 233 237 238 241 243 242 244 249 253 256 255 255 256 254 250 253 256 260 261 259 257 257 259 261 264 272
351 344 346 344 341 249 268 256 236 234 235 236 231 234 238 239 240 244 245 247 249 251 252 253 254 254 248 247 250 254 249 253 253 256 259 263 266 269
358 360 348 350 335 265 237 242 244 232 236 239 237 239 242 245 248 250 252 253 253 252 252 248 245 249 240 239 238 247 245 252 254 258 260 263 268 267
1 4 13 359 353 332 279 243 244 249 251 249 244 245 247 251 255 255 258 258 255 251 245 241 239 242 241 233 238 247 251 256 259 263 264 262 262 266
348 351 360 15 12 357 351 323 284 267 259 255 253 252 253 255 253 250 248 250 250 244 242 238 241 247 254 246 247 250 252 255 256 258 261 264 264 268
341 345 348 357 1 15 14 343 306 272 258 251 251 247 245 246 250 255 255 253 249 244 239 236 236 235 237 240 242 244 247 252 256 259 259 264 268 262
333 337 339 346 354 2 11 18 12 341 293 262 250 243 236 238 240 244 241 248 246 246 244 242 241 239 239 242 247 252 253 258 258 262 262 252 251 253
333 331 329 332 336 345 351 357 4 13 15 323 299 296 257 244 232 232 250 246 245 240 238 239 237 239 239 239 241 245 244 252 254 248 247 250 258 264
317 322 327 325 322 325 329 334 339 345 352 351 356 10 19 313 281 283 279 272 261 246 245 241 250 253 244 246 243 242 239 243 246 250 256 262 266 269
303 307 309 316 318 318 314 315 316 319 320 320 322 329 330 327 312 273 274 275 240 218 221 227 238 238 233 236 237 241 250 253 258 261 264 266 270 274
286 292 293 297 298 299 301 304 301 298 298 301 301 303 303 299 291 287 283 277 266 252 247 247 250 253 254 254 255 256 258 259 263 269 272 274 274 276
272 276 281 282 285 286 287 286 288 288 286 283 283 284 284 282 282 280 279 278 274 271 268 266 266 269 272 273 273 272 270 268 269 269 271 275 278 280
268 267 269 271 273 277 280 280 276 274 275 275 273 271 269 270 272 275 275 275 273 272 272 273 272 272 272 272 273 272 272 272 273 274 276 279 281 282
268 264 266 267 268 267 268 270 272 271 266 265 266 265 265 266 266 264 264 267 270 273 275 274 273 273 274 274 275 276 276 277 278 278 280 280 280 281
272 270 272 272 266 264 267 264 265 265 266 265 263 260 261 260 261 261 261 262 261 262 264 266 270 274 274 278 279 278 278 276 276 278 279 279 281 283
272 271 270 270 271 271 270 265 262 264 263 263 265 263 259 257 259 259 261 262 261 261 263 266 268 271 275 278 281 282 285 287 281 276 274 276 278 281
273 271 270 269 269 271 273 273 270 267 266 264 264 264 264 262 260 261 262 263 263 263 264 265 266 268 270 276 283 287 284 283 283 281 279 277 276 277
Height
5613 5607 5602 5597 5592 5589 5589 5592 5596 5602 5610 5623 5632 5641 5648 5654 5662 5664 5673 5681 5682 5686 5692 5698 5700 5703 5707 5711 5715 5718 5720 5723 5725 5727 5727 5728 5728 5729
5598 5591 5584 5575 5568 5564 5563 5564 5569 5576 5585 5598 5609 5618 5624 5631 5640 5645 5654 5660 5661 5670 5674 5680 5684 5690 5693 5698 5701 5702 5705 5708 5712 5714 5715 5716 5716 5717
5583 5575 5565 5551 5540 5533 5533 5537 5543 5551 5560 5579 5585 5595 5603 5612 5620 5626 5634 5641 5647 5650 5657 5661 5667 5674 5677 5683 5687 5689 5691 5693 5698 5700 5702 5703 5705 5705
5568 5558 5544 5527 5512 5502 5504 5514 5524 5533 5542 5558 5567 5577 5586 5595 5602 5608 5616 5623 5630 5636 5640 5645 5648 5655 5658 5664 5670 5676 5680 5681 5684 5687 5690 5690 5690 5690
5557 5545 5528 5515 5503 5496 5501 5509 5516 5524 5533 5543 5554 5561 5570 5579 5586 5593 5601 5606 5613 5619 5622 5627 5631 5634 5640 5646 5652 5659 5666 5666 5670 5670 5675 5677 5677 5677
5549 5536 5521 5510 5503 5502 5504 5508 5513 5518 5526 5534 5541 5549 5555 5564 5571 5580 5586 5590 5596 5600 5606 5610 5614 5620 5626 5630 5636 5641 5645 5649 5653 5657 5659 5662 5663 5665
5543 5532 5518 5509 5504 5504 5506 5508 5512 5516 5522 5526 5533 5539 5546 5552 5558 5563 5569 5574 5581 5586 5590 5595 5601 5605 5611 5614 5619 5624 5627 5633 5637 5642 5645 5647 5649 5651
5540 5530 5520 5511 5506 5505 5507 5509 5509 5513 5517 5521 5525 5530 5535 5541 5544 5550 5557 5561 5569 5572 5574 5582 5584 5589 5593 5599 5604 5610 5614 5619 5623 5626 5629 5632 5634 5636
5542 5532 5523 5514 5509 5506 5505 5506 5508 5510 5513 5517 5521 5525 5528 5533 5537 5542 5544 5548 5552 5555 5560 5568 5570 5576 5577 5584 5587 5597 5600 5605 5607 5610 5612 5615 5618 5620
5543 5534 5526 5518 5512 5508 5507 5506 5507 5508 5510 5512 5515 5518 5521 5524 5527 5530 5533 5536 5539 5542 5546 5553 5555 5558 5558 5569 5576 5581 5586 5590 5593 5596 5599 5600 5602 5603
5543 5535 5528 5522 5516 5511 5508 5506 5505 5505 5505 5507 5508 5511 5513 5515 5517 5519 5522 5523 5526 5529 5531 5536 5542 5547 5550 5557 5563 5567 5572 5576 5579 5581 5584 5585 5586 5587
5542 5535 5528 5523 5519 5513 5509 5506 5505 5503 5502 5501 5503 5505 5506 5507 5508 5510 5513 5514 5515 5517 5520 5524 5528 5534 5538 5543 5549 5552 5556 5562 5565 5567 5568 5570 5572 5573
5538 5533 5529 5523 5519 5514 5511 5507 5504 5502 5499 5499 5498 5499 5499 5501 5502 5502 5504 5506 5507 5510 5513 5515 5520 5524 5527 5533 5537 5541 5544 5547 5550 5553 5555 5557 5559 5560
5535 5531 5525 5521 5517 5514 5510 5507 5504 5502 5499 5496 5495 5495 5495 5495 5496 5497 5498 5499 5500 5503 5505 5508 5511 5515 5518 5522 5525 5529 5532 5535 5538 5541 5543 5545 5547 5548
5530 5526 5522 5518 5514 5510 5508 5505 5503 5500 5498 5496 5493 5491 5491 5490 5490 5490 5491 5491 5493 5495 5497 5499 5502 5503 5506 5508 5512 5519 5524 5525 5528 5530 5531 5533 5534 5534
5523 5520 5516 5513 5510 5507 5503 5500 5498 5497 5495 5494 5492 5490 5489 5487 5487 5487 5488 5489 5489 5491 5493 5496 5498 5500 5502 5505 5508 5510 5514 5515 5516 5518 5520 5520 5519 5519
5514 5512 5508 5506 5503 5501 5498 5496 5493 5491 5489 5488 5486 5485 5484 5484 5484 5484 5485 5485 5485 5487 5489 5491 5492 5494 5496 5498 5500 5502 5504 5504 5504 5504 5505 5505 5504 5504
5503 5501 5498 5496 5493 5492 5490 5488 5486 5484 5482 5481 5479 5478 5478 5478 5478 5478 5478 5479 5480 5481 5482 5483 5484 5485 5487 5488 5489 5490 5492 5493 5493 5493 5493 5492 5488 5488
5489 5488 5486 5484 5481 5480 5479 5478 5476 5475 5474 5472 5471 5470 5470 5469 5468 5469 5469 5470 5470 5471 5472 5473 5473 5474 5475 5476 5477 5479 5479 5479 5478 5478 5477 5476 5472 5470
5473 5472 5471 5470 5469 5467 5465 5465 5465 5464 5463 5462 5461 5460 5459 5458 5458 5457 5457 5457 5457 5458 5459 5460 5460 5461 5461 5461 5461 5463 5464 5463 5462 5461 5460 5459 5456 5453
5455 5454 5454 5453 5452 5451 5452 5451 5450 5449 5449 5448 5448 5448 5448 5448 5447 5446 5446 5445 5445 5445 5446 5446 5446 5446 5445 5445 5445 5445 5447 5446 5446 5444 5443 5442 5438 5432
5435 5435 5435 5435 5435 5435 5434 5434 5434 5434 5434 5434 5434 5433 5432 5432 5433 5433 5432 5432 5432 5431 5431 5431 5431 5430 5430 5430 5429 5430 5430 5430 5429 5428 5426 5423 5421 5417
5417 5417 5417 5416 5416 5416 5416 5417 5416 5416 5417 5417 5417 5416 5417 5416 5416 5415 5416 5416 5415 5415 5414 5414 5414 5413 5412 5412 5412 5412 5411 5411 5410 5409 5409 5406 5404 5401